Change the Weather History Date:

Tuesday, October 12, 2010

  Actual Average Record
Temperature  
Mean Temperature 72 °F 69 °F  
Max Temperature 82 °F 80 °F 97 °F (1979)
Min Temperature 61 °F 58 °F 35 °F (1977)
Degree Days  
Heating Degree Days 0 1  
Month to date heating degree days 6 12  
Since 1 July heating degree days 7 18  
Cooling Degree Days 7 5  
Month to date cooling degree days 54 78  
Year to date cooling degree days 3075 2655  
Growing Degree Days 21 (Base 50)    
Moisture  
Dew Point 53 °F    
Average Humidity 61    
Maximum Humidity 87    
Minimum Humidity 35    
Precipitation  
Precipitation 0.00 in 0.14 in 3.53 in (1969)
Month to date precipitation 0.02 1.36  
Year to date precipitation 27.01 28.02  
Snow  
Snow 0.00 in 0.00 in 0.00 in ()
Month to date snowfall 0.0 0.0  
Since 1 July snowfall 0.0 0.0  
Since 1 September snowfall 0.0 0.0  
Snow Depth 0.00 in    
Sea Level Pressure  
Sea Level Pressure 29.99 in    
Wind  
Wind Speed 11 mph (NW)    
Max Wind Speed 24 mph    
Max Gust Speed 28 mph    
Visibility 10 miles    
Events      
T = Trace of Precipitation, MM = Missing Value Source: NWS Daily Summary

Daily Weather History Graph

Daily Weather History Graph

Search for Another Location

Airport or City:

Trip Planner

Search our weather history database for the weather conditions in past years. The results will help you decide how hot, cold, wet, or windy it might be!

Date:

Astronomy

Oct. 12, 2010 Rise Set
Actual Time 7:30 AM CDT 6:58 PM CDT
Civil Twilight 7:05 AM CDT 7:23 PM CDT
Nautical Twilight 6:36 AM CDT 7:51 PM CDT
Astronomical Twilight 6:07 AM CDT 8:20 PM CDT
Moon 12:47 PM CDT (10/12) 10:53 PM CDT (10/12)
Length of Visible Light 12h 18m
Length of Day
11h 28m
Waxing Crescent, 29% of the Moon is Illuminated
Oct 12
Waxing Crescent
Oct 14
First Quarter
Oct 22
Full
Oct 30
Last Quarter
Nov 5
New

Hourly Weather History & Observations

Time (CDT) Temp. Dew Point Humidity Pressure Visibility Wind Dir Wind Speed Gust Speed Precip Events Conditions
12:53 AM 66.9 °F 62.1 °F 84% 29.89 in 10.0 mi SW 5.8 mph - N/A   Partly Cloudy
1:53 AM 68.0 °F 62.1 °F 81% 29.91 in 10.0 mi West 4.6 mph - N/A   Partly Cloudy
2:53 AM 64.9 °F 60.1 °F 84% 29.90 in 10.0 mi WSW 5.8 mph - N/A   Clear
3:53 AM 66.0 °F 59.0 °F 78% 29.90 in 9.0 mi West 9.2 mph - N/A   Partly Cloudy
4:53 AM 64.0 °F 54.0 °F 70% 29.91 in 10.0 mi NW 9.2 mph - N/A   Partly Cloudy
5:53 AM 63.0 °F 52.0 °F 67% 29.93 in 10.0 mi NW 9.2 mph - N/A   Partly Cloudy
6:53 AM 63.0 °F 51.1 °F 65% 29.95 in 10.0 mi NW 9.2 mph - N/A   Partly Cloudy
7:53 AM 61.0 °F 52.0 °F 72% 29.97 in 10.0 mi NW 9.2 mph - N/A   Partly Cloudy
8:53 AM 64.0 °F 52.0 °F 65% 30.00 in 10.0 mi NW 10.4 mph - N/A   Partly Cloudy
9:53 AM 68.0 °F 53.1 °F 59% 30.03 in 10.0 mi NNW 12.7 mph - N/A   Clear
10:53 AM 72.0 °F 51.1 °F 48% 30.04 in 10.0 mi NW 12.7 mph - N/A   Clear
11:53 AM 75.0 °F 51.1 °F 43% 30.04 in 10.0 mi NW 16.1 mph - N/A   Clear
12:53 PM 75.9 °F 52.0 °F 43% 30.04 in 10.0 mi NNW 12.7 mph 24.2 mph N/A   Partly Cloudy
1:53 PM 80.1 °F 50.0 °F 35% 30.02 in 10.0 mi NW 16.1 mph 25.3 mph N/A   Partly Cloudy
2:53 PM 81.0 °F 50.0 °F 34% 29.99 in 10.0 mi North 18.4 mph - N/A   Partly Cloudy
3:53 PM 81.0 °F 50.0 °F 34% 30.00 in 10.0 mi NW 18.4 mph 25.3 mph N/A   Scattered Clouds
4:53 PM 81.0 °F 50.0 °F 34% 30.00 in 10.0 mi NW 18.4 mph - N/A   Scattered Clouds
5:53 PM 80.1 °F 50.0 °F 35% 30.00 in 10.0 mi NNW 18.4 mph - N/A   Scattered Clouds
6:53 PM 78.1 °F 50.0 °F 37% 30.01 in 10.0 mi NW 9.2 mph - N/A   Partly Cloudy
7:53 PM 75.0 °F 52.0 °F 44% 30.03 in 10.0 mi North 5.8 mph - N/A   Partly Cloudy
8:53 PM 73.0 °F 51.1 °F 46% 30.04 in 10.0 mi NNW 6.9 mph - N/A   Clear
9:53 PM 71.1 °F 52.0 °F 51% 30.07 in 10.0 mi NNW 5.8 mph - N/A   Clear
10:53 PM 69.1 °F 53.1 °F 57% 30.09 in 10.0 mi NW 5.8 mph - N/A   Clear
11:53 PM 66.0 °F 53.1 °F 63% 30.09 in 10.0 mi NNW 9.2 mph - N/A   Clear